| time (UTC) | temp F | wind direction | speed knots | gust knots | rain 1hr in | rain 24hr in | rain mn in | humidity % | barometer mb |
| 20260902153421 | 69 | 0 | 0.0 | 0.0 | 0.00 | 0.16 | 0.16 | 79 | 1019.9 |
| 20260902152721 | 69 | 0 | 0.0 | 0.0 | 0.00 | 0.16 | 0.16 | 80 | 1019.9 |
| 20260902152021 | 69 | 0 | 0.0 | 0.0 | 0.00 | 0.16 | 0.16 | 80 | 1020.2 |
| 20260902151321 | 69 | 0 | 0.0 | 0.0 | 0.00 | 0.16 | 0.16 | 79 | 1020.2 |
| 20260902150621 | 69 | 0 | 0.0 | 0.0 | 0.00 | 0.16 | 0.16 | 77 | 1020.2 |
| 20260902145921 | 70 | 0 | 0.0 | 0.0 | 0.00 | 0.16 | 0.16 | 77 | 1020.2 |
| 20260902145221 | 71 | 0 | 0.0 | 0.0 | 0.00 | 0.16 | 0.16 | 77 | 1020.2 |
| 20260902144521 | 72 | 0 | 0.0 | 0.0 | 0.00 | 0.16 | 0.16 | 77 | 1020.0 |
| 20260902143821 | 72 | 0 | 0.0 | 0.0 | 0.00 | 0.16 | 0.16 | 78 | 1020.1 |
| 20260902143121 | 72 | 0 | 0.0 | 0.0 | 0.02 | 0.16 | 0.16 | 78 | 1020.2 |
| 20260902141721 | 72 | 22 | 0.0 | 0.9 | 0.02 | 0.16 | 0.16 | 78 | 1020.2 |
| 20260902141021 | 71 | 0 | 0.0 | 0.0 | 0.02 | 0.16 | 0.16 | 81 | 1020.1 |
| 20260902140321 | 70 | 0 | 0.0 | 0.0 | 0.02 | 0.16 | 0.16 | 83 | 1020.2 |
| 20260902135621 | 68 | 0 | 0.0 | 0.0 | 0.02 | 0.16 | 0.16 | 84 | 1020.0 |
| 20260902134921 | 67 | 0 | 0.0 | 0.0 | 0.02 | 0.16 | 0.16 | 83 | 1020.2 |
| 20260902134221 | 65 | 0 | 0.0 | 0.0 | 0.14 | 0.16 | 0.16 | 81 | 1020.3 |
| 20260902133521 | 65 | 0 | 0.0 | 0.0 | 0.14 | 0.16 | 0.16 | 80 | 1020.3 |
| 20260902132821 | 65 | 0 | 0.0 | 0.0 | 0.12 | 0.14 | 0.14 | 79 | 1020.7 |
| 20260902132121 | 65 | 0 | 0.0 | 0.0 | 0.12 | 0.14 | 0.14 | 79 | 1020.4 |
| 20260902131421 | 65 | 0 | 0.0 | 0.0 | 0.12 | 0.14 | 0.14 | 78 | 1020.6 |
| 20260902130021 | 65 | 0 | 0.0 | 0.0 | 0.12 | 0.14 | 0.14 | 75 | 1020.6 |
| 20260902124621 | 68 | 0 | 0.0 | 0.0 | 0.12 | 0.14 | 0.14 | 73 | 1020.6 |
| 20260902123921 | 68 | 22 | 0.9 | 2.6 | 0.00 | 0.02 | 0.02 | 71 | 1020.9 |
| 20260902123221 | 69 | 12 | 4.3 | 7.0 | 0.00 | 0.02 | 0.02 | 70 | 1020.9 |
| 20260902122521 | 71 | 1 | 2.6 | 7.0 | 0.02 | 0.02 | 0.02 | 68 | 1020.9 |
| 20260902121821 | 72 | 181 | 1.7 | 6.1 | 0.02 | 0.02 | 0.02 | 68 | 1020.7 |
| 20260902121120 | 72 | 181 | 0.9 | 6.1 | 0.02 | 0.02 | 0.02 | 71 | 1020.4 |
| 20260902120420 | 71 | 1 | 0.0 | 0.9 | 0.02 | 0.02 | 0.02 | 74 | 1020.6 |
| 20260902115722 | 70 | 1 | 0.0 | 0.9 | 0.02 | 0.02 | 0.02 | 76 | 1020.7 |
| 20260902115021 | 69 | 1 | 0.0 | 1.7 | 0.02 | 0.02 | 0.02 | 75 | 1020.7 |
| 20260902113621 | 68 | 1 | 0.0 | 1.7 | 0.02 | 0.02 | 0.02 | 72 | 1021.0 |
| 20260902112921 | 69 | 17 | 0.9 | 2.6 | 0.02 | 0.02 | 0.02 | 69 | 1021.1 |
| 20260902112220 | 69 | 6 | 3.5 | 5.2 | 0.00 | 0.00 | 0.00 | 68 | 1021.1 |
| 20260902111520 | 70 | 3 | 4.3 | 5.2 | 0.00 | 0.00 | 0.00 | 66 | 1021.1 |
| 20260902110821 | 70 | 1 | 2.6 | 4.3 | 0.00 | 0.00 | 0.00 | 66 | 1020.8 |
| 20260902110121 | 70 | 1 | 2.6 | 4.3 | 0.00 | 0.00 | 0.00 | 66 | 1020.8 |
| 20260902105420 | 70 | 1 | 1.7 | 4.3 | 0.00 | 0.00 | 0.00 | 67 | 1020.8 |
| 20260902104720 | 70 | 1 | 1.7 | 4.3 | 0.00 | 0.00 | 0.00 | 67 | 1020.8 |
| 20260902104020 | 70 | 181 | 0.0 | 3.5 | 0.00 | 0.00 | 0.00 | 67 | 1020.6 |
| 20260902103321 | 70 | 181 | 2.6 | 5.2 | 0.00 | 0.00 | 0.00 | 66 | 1020.8 |
| 20260902102620 | 70 | 181 | 4.3 | 5.2 | 0.00 | 0.00 | 0.00 | 66 | 1020.7 |
| 20260902100520 | 68 | 181 | 2.6 | 5.2 | 0.00 | 0.00 | 0.00 | 69 | 1021.0 |
| 20260902095820 | 68 | 187 | 0.0 | 1.7 | 0.00 | 0.00 | 0.00 | 70 | 1021.1 |
| 20260902095120 | 68 | 16 | 2.6 | 7.0 | 0.00 | 0.00 | 0.00 | 70 | 1021.0 |
| 20260902094420 | 67 | 181 | 1.7 | 2.6 | 0.00 | 0.00 | 0.00 | 72 | 1021.1 |
| 20260902093720 | 67 | 1 | 2.6 | 2.6 | 0.00 | 0.00 | 0.00 | 72 | 1021.3 |
| 20260902093021 | 67 | 1 | 0.9 | 2.6 | 0.00 | 0.00 | 0.00 | 73 | 1021.2 |
| 20260902092320 | 67 | 1 | 0.0 | 1.7 | 0.00 | 0.00 | 0.00 | 74 | 1021.2 |
| 20260902090920 | 66 | 181 | 0.0 | 1.7 | 0.00 | 0.00 | 0.00 | 74 | 1021.3 |
| 20260902090220 | 66 | 181 | 0.9 | 1.7 | 0.00 | 0.00 | 0.00 | 74 | 1021.1 |
| 20260902085520 | 66 | 0 | 0.0 | 0.0 | 0.00 | 0.00 | 0.00 | 75 | 1021.4 |
| 20260902084820 | 65 | 0 | 0.0 | 0.0 | 0.00 | 0.00 | 0.00 | 76 | 1021.1 |
| 20260902084120 | 65 | 181 | 0.9 | 1.7 | 0.00 | 0.00 | 0.00 | 76 | 1021.2 |
| 20260902083421 | 65 | 138 | 1.7 | 3.5 | 0.00 | 0.00 | 0.00 | 76 | 1021.1 |
| 20260902082720 | 65 | 181 | 0.9 | 1.7 | 0.00 | 0.00 | 0.00 | 76 | 1021.1 |
| 20260902082020 | 64 | 181 | 0.9 | 1.7 | 0.00 | 0.00 | 0.00 | 77 | 1021.1 |
| 20260902081320 | 64 | 0 | 0.0 | 0.0 | 0.00 | 0.00 | 0.00 | 77 | 1021.1 |
| 20260902080620 | 64 | 22 | 0.0 | 0.9 | 0.00 | 0.00 | 0.00 | 78 | 1021.2 |
| 20260902075920 | 63 | 179 | 0.0 | 1.7 | 0.00 | 0.00 | 0.00 | 78 | 1021.1 |
| 20260902075220 | 63 | 181 | 0.9 | 1.7 | 0.00 | 0.00 | 0.00 | 78 | 1021.1 |
| 20260902074520 | 63 | 181 | 2.6 | 5.2 | 0.00 | 0.00 | 0.00 | 78 | 1020.9 |
| 20260902073820 | 62 | 181 | 2.6 | 5.2 | 0.00 | 0.00 | 0.00 | 79 | 1021.1 |
| 20260902073120 | 62 | 181 | 0.9 | 2.6 | 0.00 | 0.00 | 0.00 | 79 | 1021.0 |
| 20260902071720 | 62 | 156 | 0.0 | 0.9 | 0.00 | 0.00 | 0.00 | 81 | 1020.8 |
| 20260902071020 | 61 | 181 | 0.0 | 0.9 | 0.00 | 0.00 | 0.00 | 81 | 1020.9 |
| 20260902070320 | 61 | 165 | 0.0 | 0.9 | 0.00 | 0.00 | 0.00 | 82 | 1020.8 |
| 20260902065620 | 61 | 160 | 0.0 | 0.9 | 0.00 | 0.00 | 0.00 | 82 | 1020.7 |
| 20260902064921 | 60 | 181 | 0.9 | 2.6 | 0.00 | 0.00 | 0.00 | 83 | 1020.6 |
| 20260902064221 | 60 | 1 | 1.7 | 3.5 | 0.00 | 0.00 | 0.00 | 84 | 1020.5 |
| 20260902063520 | 59 | 1 | 0.9 | 3.5 | 0.00 | 0.00 | 0.00 | 83 | 1020.5 |
| 20260902062820 | 59 | 172 | 0.9 | 6.1 | 0.00 | 0.00 | 0.00 | 84 | 1020.5 |
| 20260902062120 | 58 | 159 | 1.7 | 6.1 | 0.00 | 0.00 | 0.00 | 84 | 1020.4 |
| 20260902061420 | 58 | 181 | 1.7 | 3.5 | 0.00 | 0.00 | 0.00 | 84 | 1020.4 |
| 20260902060720 | 58 | 181 | 0.9 | 2.6 | 0.00 | 0.00 | 0.00 | 84 | 1020.3 |
| 20260902060020 | 57 | 181 | 0.0 | 0.9 | 0.00 | 0.00 | 0.00 | 84 | 1020.4 |
| 20260902054620 | 57 | 181 | 2.6 | 7.0 | 0.00 | 0.00 | 0.00 | 85 | 1020.4 |
| 20260902053920 | 56 | 168 | 3.5 | 7.0 | 0.00 | 0.00 | 0.00 | 85 | 1020.5 |
| 20260902052520 | 56 | 0 | 0.0 | 0.0 | 0.00 | 0.00 | 0.00 | 85 | 1020.4 |
| 20260902051820 | 56 | 22 | 0.9 | 2.6 | 0.00 | 0.00 | 0.00 | 85 | 1020.3 |
| 20260902051120 | 55 | 181 | 0.9 | 1.7 | 0.00 | 0.00 | 0.00 | 85 | 1020.2 |
| 20260902050420 | 55 | 181 | 1.7 | 4.3 | 0.00 | 0.00 | 0.00 | 85 | 1020.2 |
| 20260902045720 | 55 | 181 | 1.7 | 3.5 | 0.00 | 0.00 | 0.00 | 85 | 1020.2 |
| 20260902045020 | 55 | 181 | 1.7 | 3.5 | 0.00 | 0.00 | 0.00 | 85 | 1020.0 |
| 20260902044320 | 55 | 181 | 1.7 | 3.5 | 0.00 | 0.00 | 0.00 | 86 | 1020.1 |
| 20260902043620 | 54 | 0 | 0.0 | 0.0 | 0.00 | 0.00 | 0.00 | 86 | 1020.0 |
| 20260902042220 | 54 | 0 | 0.0 | 0.0 | 0.00 | 0.00 | 0.00 | 86 | 1019.8 |
| 20260902041519 | 54 | 0 | 0.0 | 0.0 | 0.00 | 0.00 | 0.00 | 86 | 1019.8 |
| 20260902040820 | 54 | 0 | 0.0 | 0.0 | 0.00 | 0.00 | 0.00 | 85 | 1019.8 |
| 20260902035719 | 54 | 0 | 0.0 | 0.0 | 0.00 | 0.00 | 0.00 | 86 | 1019.9 |
| 20260902035019 | 54 | 0 | 0.0 | 0.0 | 0.00 | 0.00 | 0.00 | 86 | 1019.9 |
| 20260902034319 | 54 | 0 | 0.0 | 0.0 | 0.00 | 0.00 | 0.00 | 86 | 1019.8 |
| 20260902033619 | 54 | 0 | 0.0 | 0.0 | 0.00 | 0.00 | 0.00 | 86 | 1019.8 |
| 20260902032919 | 54 | 0 | 0.0 | 0.0 | 0.00 | 0.00 | 0.00 | 86 | 1019.8 |
| 20260902032219 | 54 | 0 | 0.0 | 0.0 | 0.00 | 0.00 | 0.00 | 86 | 1019.9 |
| 20260902031519 | 54 | 0 | 0.0 | 0.0 | 0.00 | 0.00 | 0.00 | 86 | 1019.9 |
| 20260902030819 | 54 | 0 | 0.0 | 0.0 | 0.00 | 0.00 | 0.00 | 86 | 1019.9 |
| 20260902025721 | 54 | 0 | 0.0 | 0.0 | 0.00 | 0.00 | 0.00 | 86 | 1019.9 |
| 20260902025022 | 54 | 0 | 0.0 | 0.0 | 0.00 | 0.00 | 0.00 | 86 | 1020.0 |
| 20260902024321 | 54 | 0 | 0.0 | 0.0 | 0.00 | 0.00 | 0.00 | 86 | 1019.9 |
| 20260902023621 | 54 | 0 | 0.0 | 0.0 | 0.00 | 0.00 | 0.00 | 86 | 1020.0 |
| 20260902022921 | 54 | 0 | 0.0 | 0.0 | 0.00 | 0.00 | 0.00 | 86 | 1020.0 |
| 20260902022221 | 54 | 0 | 0.0 | 0.0 | 0.00 | 0.00 | 0.00 | 86 | 1020.1 |
| 20260902020821 | 54 | 0 | 0.0 | 0.0 | 0.00 | 0.00 | 0.00 | 86 | 1020.0 |
| 20260902015724 | 54 | 0 | 0.0 | 0.0 | 0.00 | 0.00 | 0.00 | 86 | 1019.9 |
| 20260902014324 | 54 | 0 | 0.0 | 0.0 | 0.00 | 0.00 | 0.00 | 85 | 1020.0 |
| 20260902012924 | 54 | 0 | 0.0 | 0.0 | 0.00 | 0.00 | 0.00 | 85 | 1019.9 |
| 20260902011524 | 54 | 0 | 0.0 | 0.0 | 0.00 | 0.00 | 0.00 | 85 | 1019.9 |
| 20260902010824 | 55 | 0 | 0.0 | 0.0 | 0.00 | 0.00 | 0.00 | 85 | 1019.9 |
| 20260902005721 | 55 | 0 | 0.0 | 0.0 | 0.00 | 0.00 | 0.00 | 84 | 1019.8 |
| 20260902005021 | 55 | 0 | 0.0 | 0.0 | 0.00 | 0.00 | 0.00 | 84 | 1019.8 |
| 20260902004321 | 55 | 0 | 0.0 | 0.0 | 0.00 | 0.00 | 0.00 | 85 | 1019.9 |
| 20260902003621 | 55 | 0 | 0.0 | 0.0 | 0.00 | 0.00 | 0.00 | 84 | 1019.8 |
| 20260902002921 | 55 | 0 | 0.0 | 0.0 | 0.00 | 0.00 | 0.00 | 84 | 1019.8 |
| 20260902002221 | 55 | 0 | 0.0 | 0.0 | 0.00 | 0.00 | 0.00 | 84 | 1019.8 |
| 20260902001521 | 55 | 0 | 0.0 | 0.0 | 0.00 | 0.00 | 0.00 | 84 | 1019.8 |
| 20260902000821 | 56 | 0 | 0.0 | 0.0 | 0.00 | 0.00 | 0.00 | 84 | 1019.8 |
| 20260901235621 | 56 | 0 | 0.0 | 0.0 | 0.00 | 0.00 | 0.00 | 83 | 1019.8 |
| 20260901234921 | 56 | 0 | 0.0 | 0.0 | 0.00 | 0.00 | 0.00 | 83 | 1019.8 |
| 20260901234221 | 56 | 0 | 0.0 | 0.0 | 0.00 | 0.00 | 0.00 | 83 | 1019.7 |
| 20260901233521 | 56 | 0 | 0.0 | 0.0 | 0.00 | 0.00 | 0.00 | 83 | 1019.7 |
| 20260901231420 | 56 | 0 | 0.0 | 0.0 | 0.00 | 0.00 | 0.00 | 83 | 1019.5 |
| 20260901230720 | 56 | 0 | 0.0 | 0.0 | 0.00 | 0.00 | 0.00 | 82 | 1019.4 |
| 20260901230021 | 56 | 0 | 0.0 | 0.0 | 0.00 | 0.00 | 0.00 | 82 | 1019.5 |
| 20260901224620 | 56 | 0 | 0.0 | 0.0 | 0.00 | 0.00 | 0.00 | 82 | 1019.5 |
| 20260901223920 | 56 | 0 | 0.0 | 0.0 | 0.00 | 0.00 | 0.00 | 82 | 1019.4 |
| 20260901223220 | 56 | 0 | 0.0 | 0.0 | 0.00 | 0.00 | 0.00 | 82 | 1019.5 |
| 20260901222520 | 56 | 0 | 0.0 | 0.0 | 0.00 | 0.00 | 0.00 | 82 | 1019.4 |
| 20260901221120 | 57 | 0 | 0.0 | 0.0 | 0.00 | 0.00 | 0.00 | 81 | 1019.5 |
| 20260901220420 | 57 | 0 | 0.0 | 0.0 | 0.00 | 0.00 | 0.00 | 81 | 1019.4 |
| 20260901215720 | 57 | 0 | 0.0 | 0.0 | 0.00 | 0.00 | 0.00 | 81 | 1019.4 |
| 20260901215020 | 57 | 0 | 0.0 | 0.0 | 0.00 | 0.00 | 0.00 | 80 | 1019.5 |
| 20260901214320 | 58 | 0 | 0.0 | 0.0 | 0.00 | 0.00 | 0.00 | 80 | 1019.4 |
| 20260901213620 | 58 | 0 | 0.0 | 0.0 | 0.00 | 0.00 | 0.00 | 79 | 1019.6 |
| 20260901212220 | 58 | 135 | 0.0 | 0.0 | 0.00 | 0.00 | 0.00 | 79 | 1019.6 |
| 20260901211520 | 58 | 135 | 0.0 | 0.0 | 0.00 | 0.00 | 0.00 | 79 | 1019.6 |
| 20260901210120 | 59 | 0 | 0.0 | 0.0 | 0.00 | 0.00 | 0.00 | 78 | 1019.5 |
| 20260901205420 | 59 | 0 | 0.0 | 0.0 | 0.00 | 0.00 | 0.00 | 78 | 1019.6 |
| 20260901204020 | 59 | 0 | 0.0 | 0.0 | 0.00 | 0.00 | 0.00 | 78 | 1019.5 |
| 20260901203320 | 59 | 0 | 0.0 | 0.0 | 0.00 | 0.00 | 0.00 | 78 | 1019.6 |
| 20260901202620 | 59 | 181 | 0.0 | 0.9 | 0.00 | 0.00 | 0.00 | 78 | 1019.5 |
| 20260901201920 | 59 | 181 | 0.0 | 0.9 | 0.00 | 0.00 | 0.00 | 77 | 1019.5 |
| 20260901201220 | 59 | 0 | 0.0 | 0.0 | 0.00 | 0.00 | 0.00 | 77 | 1019.4 |
| 20260901195821 | 59 | 0 | 0.0 | 0.0 | 0.00 | 0.00 | 0.00 | 77 | 1019.6 |
| 20260901195120 | 60 | 0 | 0.0 | 0.0 | 0.00 | 0.00 | 0.00 | 76 | 1019.5 |
| 20260901194420 | 60 | 0 | 0.0 | 0.0 | 0.00 | 0.00 | 0.00 | 76 | 1019.6 |
| 20260901193020 | 60 | 0 | 0.0 | 0.0 | 0.00 | 0.00 | 0.00 | 75 | 1019.7 |
| 20260901192320 | 60 | 0 | 0.0 | 0.0 | 0.00 | 0.00 | 0.00 | 75 | 1019.7 |
| 20260901191621 | 60 | 0 | 0.0 | 0.0 | 0.00 | 0.00 | 0.00 | 74 | 1019.8 |
| 20260901190920 | 61 | 0 | 0.0 | 0.0 | 0.00 | 0.00 | 0.00 | 74 | 1019.8 |
| 20260901185520 | 61 | 0 | 0.0 | 0.0 | 0.00 | 0.00 | 0.00 | 73 | 1019.6 |
| 20260901184820 | 62 | 0 | 0.0 | 0.0 | 0.00 | 0.00 | 0.00 | 72 | 1019.6 |
| 20260901184120 | 62 | 0 | 0.0 | 0.0 | 0.00 | 0.00 | 0.00 | 72 | 1019.7 |
| 20260901183420 | 62 | 0 | 0.0 | 0.0 | 0.00 | 0.00 | 0.00 | 71 | 1019.4 |
| 20260901182720 | 63 | 0 | 0.0 | 0.0 | 0.00 | 0.00 | 0.00 | 70 | 1019.4 |
| 20260901182020 | 63 | 0 | 0.0 | 0.0 | 0.00 | 0.00 | 0.00 | 69 | 1019.3 |
| 20260901181320 | 64 | 0 | 0.0 | 0.0 | 0.00 | 0.00 | 0.00 | 69 | 1019.5 |
| 20260901180620 | 64 | 0 | 0.0 | 0.0 | 0.00 | 0.00 | 0.00 | 68 | 1019.4 |
| 20260901175920 | 65 | 0 | 0.0 | 0.0 | 0.00 | 0.00 | 0.00 | 67 | 1019.2 |
| 20260901175220 | 65 | 0 | 0.0 | 0.0 | 0.00 | 0.00 | 0.00 | 67 | 1019.1 |
| 20260901174520 | 65 | 0 | 0.0 | 0.0 | 0.00 | 0.00 | 0.00 | 66 | 1019.1 |
| 20260901173820 | 65 | 0 | 0.0 | 0.0 | 0.00 | 0.00 | 0.00 | 66 | 1019.1 |
| 20260901173120 | 65 | 0 | 0.0 | 0.0 | 0.00 | 0.00 | 0.00 | 66 | 1019.2 |
| 20260901172420 | 66 | 0 | 0.0 | 0.0 | 0.00 | 0.00 | 0.00 | 66 | 1019.0 |
| 20260901171720 | 66 | 0 | 0.0 | 0.0 | 0.00 | 0.00 | 0.00 | 65 | 1018.9 |
| 20260901171020 | 66 | 181 | 0.9 | 3.5 | 0.00 | 0.00 | 0.00 | 65 | 1018.9 |
| 20260901170320 | 66 | 183 | 3.5 | 7.8 | 0.00 | 0.00 | 0.00 | 64 | 1018.9 |
| 20260901165620 | 66 | 199 | 3.5 | 7.8 | 0.00 | 0.00 | 0.00 | 64 | 1019.0 |
| 20260901164920 | 67 | 179 | 1.7 | 5.2 | 0.00 | 0.00 | 0.00 | 64 | 1018.9 |
| 20260901162820 | 67 | 40 | 1.7 | 5.2 | 0.00 | 0.00 | 0.00 | 63 | 1018.9 |
| 20260901162120 | 67 | 181 | 0.9 | 3.5 | 0.00 | 0.00 | 0.00 | 63 | 1018.8 |
| 20260901160720 | 67 | 174 | 1.7 | 5.2 | 0.00 | 0.00 | 0.00 | 63 | 1018.8 |
| 20260901160019 | 67 | 176 | 4.3 | 5.2 | 0.00 | 0.04 | 0.00 | 63 | 1018.8 |
| 20260901155320 | 67 | 123 | 4.3 | 7.0 | 0.00 | 0.04 | 0.00 | 63 | 1018.7 |
| 20260901154620 | 67 | 133 | 2.6 | 7.0 | 0.00 | 0.04 | 0.00 | 63 | 1018.7 |
| 20260901153920 | 67 | 122 | 1.7 | 1.7 | 0.00 | 0.04 | 0.00 | 62 | 1018.7 |